Weather History for Spencer, IA

Change the Weather History Date:

Thursday, February 14, 2013

  Actual Average Record
Temperature  
Mean Temperature 25 °F -  
Max Temperature 35 °F 27 °F 52 °F (2005)
Min Temperature 14 °F 11 °F -11 °F (2007)
Degree Days  
Heating Degree Days 40    
Moisture  
Dew Point 23 °F    
Average Humidity 79    
Maximum Humidity 93    
Minimum Humidity 61    
Precipitation  
Precipitation 0.00 in - - ()
Sea Level Pressure  
Sea Level Pressure 29.96 in    
Wind  
Wind Speed 16 mph (NW)    
Max Wind Speed 22 mph    
Max Gust Speed 30 mph    
Visibility 8 miles    
Events Snow    
Averages and records for this station are not official NWS values.
T = Trace of Precipitation, MM = Missing Value Source: NWS Daily Summary

Daily Weather History Graph

Daily Weather History Graph

Search for Another Location

Airport:

Trip Planner

Search our weather history database for the weather conditions in past years. The results will help you decide how hot, cold, wet, or windy it might be!

Date:

Astronomy

Feb. 14, 2013 Rise Set
Actual Time 7:19 AM CST 5:50 PM CST
Civil Twilight 6:50 AM CST 6:20 PM CST
Nautical Twilight 6:17 AM CST 6:53 PM CST
Astronomical Twilight 5:44 AM CST 7:26 PM CST
Moon 9:12 AM CST (2/14) 11:04 PM CST (2/14)
Length of Visible Light 11h 29m
Length of Day
10h 31m
Waxing Crescent, 22% of the Moon is Illuminated
Feb 14
Waxing Crescent
Feb 17
First Quarter
Feb 25
Full
Mar 4
Last Quarter
Mar 11
New

Hourly Weather History & Observations

Time (CST) Temp. Windchill Dew Point Humidity Pressure Visibility Wind Dir Wind Speed Gust Speed Precip Events Conditions
12:04 AM 35.6 °F 25.2 °F 28.4 °F 75% 29.67 in 10.0 mi WNW 18.4 mph - N/A   Scattered Clouds
12:53 AM 35.1 °F 24.8 °F 30.0 °F 82% 29.72 in 10.0 mi WNW 17.3 mph 26.5 mph N/A   Mostly Cloudy
1:53 AM 34.0 °F 22.1 °F 28.0 °F 79% 29.74 in 10.0 mi NNW 21.9 mph 29.9 mph N/A   Overcast
2:53 AM 32.0 °F 20.1 °F 27.0 °F 82% 29.78 in 10.0 mi NW 19.6 mph - N/A   Mostly Cloudy
3:53 AM 33.1 °F 21.5 °F 27.0 °F 78% 29.80 in 10.0 mi NW 19.6 mph 28.8 mph N/A   Overcast
4:53 AM 32.0 °F 20.8 °F 27.0 °F 82% 29.83 in 10.0 mi NW 17.3 mph - N/A   Overcast
5:46 AM 30.2 °F 18.9 °F 26.6 °F 86% 29.82 in 10.0 mi NW 16.1 mph - N/A   Overcast
5:53 AM 30.9 °F 21.2 °F 26.1 °F 82% 29.86 in 10.0 mi NW 12.7 mph 24.2 mph N/A   Overcast
6:53 AM 28.9 °F 18.6 °F 25.0 °F 85% 29.88 in 10.0 mi NW 12.7 mph - N/A   Scattered Clouds
7:02 AM 28.4 °F 19.1 °F 26.6 °F 93% 29.84 in 10.0 mi NW 10.4 mph - N/A   Mostly Cloudy
7:50 AM 30.2 °F 20.2 °F 26.6 °F 86% 29.85 in 10.0 mi NNW 12.7 mph - N/A   Overcast
7:53 AM 30.0 °F 21.1 °F 26.1 °F 85% 29.89 in 10.0 mi NW 10.4 mph - N/A   Overcast
8:53 AM 30.0 °F 24.1 °F 27.0 °F 88% 29.90 in 10.0 mi West 5.8 mph - N/A   Overcast
9:50 AM 30.2 °F 20.8 °F 26.6 °F 86% 29.88 in 2.0 mi West 11.5 mph - 0.00 in Snow Light Snow
9:53 AM 30.9 °F 22.2 °F 27.0 °F 85% 29.92 in 2.0 mi West 10.4 mph - 0.00 in Snow Light Snow
9:57 AM 30.2 °F 20.8 °F 26.6 °F 86% 29.88 in 3.0 mi West 11.5 mph - 0.00 in Snow Light Snow
10:53 AM 32.0 °F 24.2 °F 28.0 °F 85% 29.92 in 10.0 mi West 9.2 mph - 0.00 in   Overcast
11:53 AM 33.1 °F 23.9 °F 27.0 °F 78% 29.94 in 10.0 mi WNW 12.7 mph 24.2 mph N/A   Overcast
12:14 PM 33.8 °F 22.5 °F 26.6 °F 75% 29.90 in 1.8 mi NW 19.6 mph 26.5 mph 0.00 in Snow Light Snow
12:31 PM 32.0 °F 21.2 °F 28.4 °F 87% 29.90 in 2.5 mi NW 16.1 mph 28.8 mph 0.00 in Snow Light Snow
12:42 PM 32.0 °F 20.8 °F 28.4 °F 87% 29.90 in 1.2 mi NW 17.3 mph 25.3 mph 0.00 in Snow Light Snow
12:49 PM 30.2 °F 18.5 °F 26.6 °F 86% 29.91 in 1.2 mi North 17.3 mph - 0.00 in Snow Light Snow
12:50 PM 30.9 °F 20.2 °F 27.0 °F 85% 29.96 in 1.2 mi NNW 15.0 mph - 0.00 in Snow Light Snow
1:08 PM 30.2 °F 18.9 °F 26.6 °F 86% 29.92 in 3.0 mi North 16.1 mph - 0.00 in Snow Light Snow
1:53 PM 30.9 °F 19.8 °F 26.1 °F 82% 29.99 in 4.0 mi North 16.1 mph - 0.00 in Snow Light Snow
2:05 PM 30.2 °F 19.8 °F 24.8 °F 80% 29.95 in 6.0 mi North 13.8 mph - 0.00 in Snow Light Snow
2:27 PM 30.2 °F 19.8 °F 24.8 °F 80% 29.96 in 10.0 mi NNW 13.8 mph - 0.00 in   Overcast
2:36 PM 30.2 °F 18.9 °F 24.8 °F 80% 29.97 in 10.0 mi NNW 16.1 mph 21.9 mph 0.00 in   Overcast
2:43 PM 30.2 °F 19.8 °F 24.8 °F 80% 29.97 in 10.0 mi NNW 13.8 mph 21.9 mph 0.00 in   Overcast
2:53 PM 30.0 °F 18.7 °F 24.1 °F 79% 30.03 in 10.0 mi NNW 16.1 mph - 0.00 in   Overcast
3:37 PM 30.2 °F 18.1 °F 23.0 °F 75% 30.00 in 10.0 mi NNW 18.4 mph - N/A   Mostly Cloudy
3:46 PM 30.2 °F 17.4 °F 23.0 °F 75% 30.01 in 10.0 mi NNW 20.7 mph 25.3 mph N/A   Mostly Cloudy
3:53 PM 30.0 °F 17.9 °F 21.9 °F 72% 30.06 in 10.0 mi NNW 18.4 mph - N/A   Mostly Cloudy
4:30 PM 28.4 °F 15.4 °F 21.2 °F 74% 30.05 in 10.0 mi NNW 19.6 mph - N/A   Overcast
4:53 PM 28.0 °F 16.1 °F 19.9 °F 72% 30.11 in 10.0 mi North 16.1 mph - N/A   Overcast
5:53 PM 25.0 °F 12.6 °F 16.0 °F 69% 30.15 in 10.0 mi North 15.0 mph - N/A   Overcast
6:53 PM 21.9 °F 6.9 °F 12.9 °F 68% 30.19 in 10.0 mi North 19.6 mph - N/A   Partly Cloudy
7:53 PM 19.9 °F 4.8 °F 10.0 °F 65% 30.22 in 10.0 mi NNW 18.4 mph - N/A   Partly Cloudy
8:53 PM 18.0 °F 2.2 °F 8.1 °F 65% 30.24 in 10.0 mi North 18.4 mph - N/A   Partly Cloudy
9:53 PM 17.1 °F 1.0 °F 6.1 °F 62% 30.26 in 10.0 mi NNW 18.4 mph 24.2 mph N/A   Clear
10:53 PM 15.1 °F 0.5 °F 3.9 °F 61% 30.28 in 10.0 mi NW 13.8 mph - N/A   Clear
11:53 PM 14.0 °F 0.5 °F 3.9 °F 64% 30.29 in 10.0 mi NW 11.5 mph - N/A   Clear